| time (UTC) | temp F | wind direction | speed knots | gust knots | rain 1hr in | rain 24hr in | rain mn in | humidity % | barometer mb |
| 20260904171534 | 74 | 154 | 0.9 | 5.2 | 0.00 | 0.00 | 0.00 | 64 | 1010.2 |
| 20260904170027 | 74 | 348 | 0.9 | 7.0 | 0.00 | 0.00 | 0.00 | 66 | 1010.2 |
| 20260904164525 | 73 | 335 | 0.9 | 6.1 | 0.00 | 0.00 | 0.00 | 67 | 1010.5 |
| 20260904163030 | 73 | 218 | 0.9 | 7.8 | 0.00 | 0.00 | 0.00 | 69 | 1010.5 |
| 20260904161522 | 72 | 253 | 0.0 | 4.3 | 0.00 | 0.00 | 0.00 | 70 | 1010.6 |
| 20260904160021 | 72 | 294 | 0.9 | 7.8 | 0.00 | 0.00 | 0.00 | 71 | 1010.9 |
| 20260904154520 | 72 | 315 | 1.7 | 7.8 | 0.00 | 0.00 | 0.00 | 69 | 1011.1 |
| 20260904153021 | 71 | 337 | 2.6 | 8.7 | 0.00 | 0.00 | 0.00 | 71 | 1011.1 |
| 20260904151516 | 71 | 317 | 0.0 | 3.5 | 0.00 | 0.00 | 0.00 | 72 | 1011.0 |
| 20260904150025 | 70 | 5 | 0.0 | 5.2 | 0.00 | 0.00 | 0.00 | 75 | 1011.2 |
| 20260904144510 | 69 | 294 | 0.9 | 7.0 | 0.00 | 0.00 | 0.00 | 78 | 1011.1 |
| 20260904143006 | 68 | 28 | 1.7 | 4.3 | 0.00 | 0.00 | 0.00 | 85 | 1011.1 |
| 20260904141503 | 66 | 24 | 1.7 | 4.3 | 0.00 | 0.00 | 0.00 | 91 | 1011.1 |
| 20260904140100 | 65 | 5 | 1.7 | 3.5 | 0.00 | 0.00 | 0.00 | 93 | 1011.1 |
| 20260904134559 | 64 | 208 | 0.9 | 1.7 | 0.00 | 0.00 | 0.00 | 93 | 1011.1 |
| 20260904133053 | 63 | 209 | 0.0 | 0.9 | 0.00 | 0.00 | 0.00 | 94 | 1011.1 |
| 20260904131553 | 62 | 209 | 0.9 | 1.7 | 0.00 | 0.00 | 0.00 | 94 | 1011.1 |
| 20260904130050 | 62 | 207 | 0.0 | 0.9 | 0.00 | 0.00 | 0.00 | 94 | 1011.1 |
| 20260904124550 | 61 | 207 | 0.0 | 0.9 | 0.00 | 0.00 | 0.00 | 94 | 1011.2 |
| 20260904123049 | 60 | 207 | 0.0 | 0.9 | 0.00 | 0.00 | 0.00 | 94 | 1011.4 |
| 20260904121549 | 59 | 207 | 0.0 | 0.0 | 0.00 | 0.00 | 0.00 | 93 | 1011.4 |
| 20260904120050 | 58 | 207 | 0.0 | 0.0 | 0.00 | 0.00 | 0.00 | 93 | 1011.4 |
| 20260904114547 | 58 | 207 | 0.0 | 0.0 | 0.00 | 0.00 | 0.00 | 93 | 1011.4 |
| 20260904113044 | 57 | 207 | 0.0 | 0.0 | 0.00 | 0.00 | 0.00 | 93 | 1011.2 |
| 20260904111543 | 57 | 207 | 0.0 | 0.0 | 0.00 | 0.00 | 0.00 | 92 | 1011.0 |
| 20260904110041 | 57 | 207 | 0.0 | 0.0 | 0.00 | 0.00 | 0.00 | 92 | 1010.8 |
| 20260904104541 | 57 | 207 | 0.0 | 0.0 | 0.00 | 0.00 | 0.00 | 92 | 1010.7 |
| 20260904103039 | 58 | 207 | 0.0 | 0.0 | 0.00 | 0.00 | 0.00 | 92 | 1010.6 |
| 20260904101538 | 58 | 207 | 0.0 | 0.0 | 0.00 | 0.00 | 0.00 | 92 | 1010.6 |
| 20260904100039 | 58 | 207 | 0.0 | 0.0 | 0.00 | 0.00 | 0.00 | 92 | 1010.4 |
| 20260904094543 | 58 | 207 | 0.0 | 0.0 | 0.00 | 0.00 | 0.00 | 92 | 1010.4 |
| 20260904093036 | 58 | 207 | 0.0 | 0.0 | 0.00 | 0.00 | 0.00 | 92 | 1010.2 |
| 20260904091535 | 59 | 207 | 0.0 | 0.0 | 0.00 | 0.00 | 0.00 | 92 | 1010.1 |
| 20260904090036 | 59 | 207 | 0.0 | 0.0 | 0.00 | 0.00 | 0.00 | 92 | 1009.9 |
| 20260904084534 | 59 | 207 | 0.0 | 0.0 | 0.00 | 0.00 | 0.00 | 92 | 1010.0 |
| 20260904083041 | 59 | 207 | 0.0 | 0.0 | 0.00 | 0.00 | 0.00 | 92 | 1010.0 |
| 20260904081531 | 59 | 207 | 0.0 | 0.0 | 0.00 | 0.00 | 0.00 | 92 | 1010.2 |
| 20260904080031 | 59 | 207 | 0.0 | 0.0 | 0.00 | 0.00 | 0.00 | 92 | 1010.1 |
| 20260904074530 | 59 | 207 | 0.0 | 0.0 | 0.00 | 0.00 | 0.00 | 92 | 1010.2 |
| 20260904073029 | 59 | 207 | 0.0 | 0.0 | 0.00 | 0.00 | 0.00 | 91 | 1010.0 |
| 20260904071528 | 60 | 207 | 0.0 | 0.0 | 0.00 | 0.00 | 0.00 | 92 | 1009.9 |
| 20260904070025 | 60 | 207 | 0.0 | 0.0 | 0.00 | 0.00 | 0.00 | 91 | 1009.9 |
| 20260904064524 | 60 | 207 | 0.0 | 0.0 | 0.00 | 0.00 | 0.00 | 92 | 1010.0 |
| 20260904063025 | 61 | 207 | 0.0 | 0.0 | 0.00 | 0.00 | 0.00 | 92 | 1010.1 |
| 20260904061521 | 61 | 207 | 0.0 | 0.0 | 0.00 | 0.00 | 0.00 | 91 | 1010.3 |
| 20260904060021 | 61 | 207 | 0.0 | 0.0 | 0.00 | 0.00 | 0.00 | 92 | 1010.6 |
| 20260904054517 | 61 | 207 | 0.0 | 0.0 | 0.00 | 0.00 | 0.00 | 91 | 1010.5 |
| 20260904053019 | 61 | 207 | 0.0 | 0.0 | 0.00 | 0.00 | 0.00 | 91 | 1010.8 |
| 20260904051514 | 61 | 207 | 0.0 | 0.0 | 0.00 | 0.00 | 0.00 | 90 | 1010.9 |
| 20260904050012 | 61 | 207 | 0.0 | 0.0 | 0.00 | 0.00 | 0.00 | 90 | 1011.0 |
| 20260904044513 | 62 | 207 | 0.0 | 0.0 | 0.00 | 0.00 | 0.00 | 90 | 1011.0 |
| 20260904043013 | 62 | 207 | 0.0 | 0.0 | 0.00 | 0.00 | 0.00 | 90 | 1011.1 |
| 20260904041509 | 63 | 207 | 0.0 | 0.0 | 0.00 | 0.00 | 0.00 | 89 | 1011.0 |
| 20260904040004 | 63 | 207 | 0.0 | 0.0 | 0.00 | 0.00 | 0.00 | 89 | 1011.2 |
| 20260904034503 | 63 | 207 | 0.0 | 0.0 | 0.00 | 0.00 | 0.00 | 89 | 1011.1 |
| 20260904033004 | 64 | 207 | 0.0 | 0.0 | 0.00 | 0.00 | 0.00 | 89 | 1011.3 |
| 20260904031503 | 64 | 207 | 0.0 | 0.0 | 0.00 | 0.00 | 0.00 | 89 | 1011.3 |
| 20260904030002 | 64 | 207 | 0.0 | 0.0 | 0.00 | 0.00 | 0.00 | 88 | 1011.4 |
| 20260904024504 | 65 | 207 | 0.0 | 0.0 | 0.00 | 0.00 | 0.00 | 88 | 1011.4 |
| 20260904023001 | 65 | 207 | 0.0 | 0.0 | 0.00 | 0.00 | 0.00 | 88 | 1011.4 |
| 20260904021501 | 66 | 207 | 0.0 | 0.0 | 0.00 | 0.00 | 0.00 | 87 | 1011.5 |
| 20260904020109 | 66 | 207 | 0.0 | 0.0 | 0.00 | 0.00 | 0.00 | 87 | 1011.4 |
| 20260904014613 | 67 | 207 | 0.0 | 0.0 | 0.00 | 0.00 | 0.00 | 86 | 1011.4 |
| 20260904013059 | 68 | 207 | 0.0 | 0.9 | 0.00 | 0.00 | 0.00 | 86 | 1011.3 |
| 20260904011559 | 68 | 205 | 0.0 | 0.0 | 0.00 | 0.00 | 0.00 | 86 | 1011.3 |
| 20260904010100 | 69 | 205 | 0.0 | 0.0 | 0.00 | 0.00 | 0.00 | 85 | 1011.4 |
| 20260904004558 | 70 | 205 | 0.0 | 0.0 | 0.00 | 0.00 | 0.00 | 84 | 1011.2 |
| 20260904003058 | 71 | 205 | 0.0 | 0.9 | 0.00 | 0.00 | 0.00 | 83 | 1011.0 |
| 20260904001556 | 72 | 205 | 0.0 | 0.0 | 0.00 | 0.00 | 0.00 | 82 | 1010.7 |
| 20260904000114 | 73 | 205 | 0.0 | 0.9 | 0.00 | 0.00 | 0.00 | 81 | 1010.3 |
| 20260903234556 | 74 | 205 | 0.0 | 0.0 | 0.00 | 0.00 | 0.00 | 78 | 1010.2 |
| 20260903233057 | 75 | 205 | 0.0 | 0.0 | 0.00 | 0.00 | 0.00 | 77 | 1009.9 |
| 20260903231556 | 75 | 205 | 0.0 | 1.7 | 0.00 | 0.00 | 0.00 | 76 | 1010.0 |
| 20260903230055 | 76 | 207 | 0.9 | 2.6 | 0.00 | 0.00 | 0.00 | 75 | 1010.1 |
| 20260903224611 | 77 | 210 | 0.0 | 0.9 | 0.00 | 0.00 | 0.00 | 75 | 1010.2 |
| 20260903223051 | 77 | 210 | 0.0 | 5.2 | 0.00 | 0.00 | 0.00 | 74 | 1010.3 |
| 20260903221552 | 78 | 196 | 0.0 | 3.5 | 0.00 | 0.00 | 0.00 | 74 | 1010.2 |
| 20260903220050 | 78 | 223 | 1.7 | 5.2 | 0.00 | 0.00 | 0.00 | 74 | 1010.1 |
| 20260903214607 | 78 | 211 | 2.6 | 7.0 | 0.00 | 0.00 | 0.00 | 71 | 1010.2 |
| 20260903213059 | 79 | 217 | 1.7 | 5.2 | 0.00 | 0.00 | 0.00 | 71 | 1010.5 |
| 20260903211549 | 79 | 217 | 1.7 | 4.3 | 0.00 | 0.00 | 0.00 | 70 | 1010.6 |
| 20260903210121 | 79 | 219 | 0.0 | 4.3 | 0.00 | 0.00 | 0.00 | 71 | 1010.2 |
| 20260903204550 | 79 | 210 | 0.0 | 1.7 | 0.00 | 0.00 | 0.00 | 74 | 1010.1 |
| 20260903203105 | 80 | 208 | 0.0 | 5.2 | 0.00 | 0.00 | 0.00 | 71 | 1010.2 |
| 20260903201548 | 80 | 217 | 3.5 | 7.8 | 0.00 | 0.00 | 0.00 | 69 | 1010.1 |
| 20260903200052 | 79 | 330 | 0.0 | 2.6 | 0.00 | 0.00 | 0.00 | 74 | 1010.2 |
| 20260903194541 | 79 | 212 | 1.7 | 7.0 | 0.00 | 0.00 | 0.00 | 72 | 1010.4 |
| 20260903193039 | 78 | 198 | 0.0 | 5.2 | 0.00 | 0.00 | 0.00 | 75 | 1010.7 |
| 20260903191540 | 78 | 205 | 0.9 | 4.3 | 0.00 | 0.00 | 0.00 | 75 | 1010.6 |
| 20260903190035 | 77 | 221 | 0.0 | 2.6 | 0.00 | 0.00 | 0.00 | 78 | 1010.5 |
| 20260903184531 | 76 | 202 | 0.9 | 3.5 | 0.00 | 0.00 | 0.00 | 81 | 1010.7 |
| 20260903183029 | 75 | 223 | 0.0 | 2.6 | 0.00 | 0.00 | 0.00 | 81 | 1010.9 |
| 20260903181528 | 75 | 217 | 0.0 | 4.3 | 0.00 | 0.00 | 0.00 | 81 | 1011.1 |
| 20260903180026 | 74 | 215 | 0.0 | 2.6 | 0.00 | 0.00 | 0.00 | 82 | 1011.3 |
| 20260903174522 | 74 | 153 | 0.0 | 2.6 | 0.00 | 0.00 | 0.00 | 81 | 1011.5 |
| 20260903173021 | 74 | 153 | 0.0 | 2.6 | 0.00 | 0.00 | 0.00 | 82 | 1011.6 |